FENGYUN 1C DEB

Satellite information

Favourite Embed

Satellite Type and Status

DEBRISIN ORBIT

Key statistics

Satellite FENGYUN 1C DEB at a glance.

Uptime

9556

Days in orbit

Revolutions

≈ 14.5

Per day

Orbit

SSO

Sun Synchronous Orbit

Inclination

98.8

Latest

Satellite identification and parameters

Extended collection of information and parameters for FENGYUN 1C DEB.

Object identification

Identified? True

Debris? True

Object name: FENGYUN 1C DEB

International designator: 1999-025DB

Object number (NORAD): 29809

Object ID (CCSDS): 29809

Country: PEOPLES REPUBLIC OF CHINA (PRC)

Current information (Y/N): Y

RCS size: SMALL

Orbital parameters

Period: 99.575 minutes

Inclination: 98.8355 deg

SMA: 7116.405 km

Apoapsis: 822.317 km

Periapsis: 654.223 km

RAAN: 145.4937 deg

Eccentricy: 0.0118103

Argument of periapsis: 102.2311 deg

Mean anomaly: 320.9455 deg

Mean motion: 14.46144795 rev/day

Mean motion (dot): 0.0000063 rev/day2

B* drag term: 0.00017508 1/REarth

Two-line elements (TLE)

Creation date: July 8, 2025, 2:27 a.m.

Reference frame: TEME

Reference center: EARTH

Epoch: July 7, 2025, 8:30 p.m. UTC

TLE line 0: 0 FENGYUN 1C DEB

TLE line 1: 1 29809U 99025DB 25188.85472779 .00000630 00000-0 17508-3 0 9999

TLE line 2: 2 29809 98.8355 145.4937 0118103 102.2311 320.9455 14.46144795971858

Live tracking on map

Real-time ground track for satellite FENGYUN 1C DEB.

In-orbit conjunctions

A list of the most updated potential collisions computed for object FENGYUN 1C DEB.

Target Orbit TCA Probability of collision Miss distance Type
COSMOS 2251 DEB LEO 2025-01-02 22:19:17 0.0001030922 196.0 (m) DEBRIS
NOAA 16 DEB SSO 2024-11-09 15:54:39 0.0004828174 309.0 (m) DEBRIS

Associated space launch

Chinese polar orbiting meteorological satellite

FENGYUN 1C DEB was lifted into orbit during the mission ‘Long March 4B | Feng Yun 1C’, on board a Long March 4B space rocket.

The launch took place on May 10, 1999, 1:33 a.m. from Launch Complex 7.

For more information about the launch, click the button.

Launch to space Long March 4B | Feng Yun 1C
Long March 4B | Feng Yun 1C

Agency: N/A

Status: Launch Successful

Launch date: May 10, 1999, 1:33 a.m. UTC

Rocket: Long March 4B

Launch pad: Launch Complex 7

Location: Taiyuan Satellite Launch Center, People's Republic of China

...

Latest news about this satellite

There are no fresh news available about this satellite. Check back as we update our databases every day.


Newsletter sign-up

Weekly statistics, charts and insights to help you stay on top of the space industry.